sat.trackr.live / text

‹ back to catalog

ISAT

NORAD 43879 · 2018-111D

PAYLOAD ACTIVE UNKNOWN

§ Identity

Operator
Country
GER
Launch date
2018-12-27
Launch site
VOSTO
Launch vehicle
Mass (kg)
RCS (m²)

External: N2YO · Heavens-Above · Gunter

§ Orbital elements

Epoch: 2026-09-15T18:57:03.589632Z

Period
90.17 min
Inclination
97.5771°
Eccentricity
0.0008125
Mean motion
15.96919152 rev/d
Perigee alt
277.6 km
Apogee alt
288.4 km
Semi-major
6,661.1 km
B*
1.0759e-3
RAAN
202.5908°
Arg perigee
132.5734°
Mean anomaly
227.6229°
Rev number
42,544

§ Raw data

ISAT1 43879U 18111D   26258.78962488  .00460007  89499-4  10759-2 0  99922 43879  97.5771 202.5908 0008125 132.5734 227.6229 15.96919152425443

JSON: /api/v1/satellites/43879 · /tle

For live sub-satellite position, see the globe view (requires WebGL).

§ Visibility from observer

Set your observer location to see the next 7 days of passes ≥ 10°. The values pass through the URL so the page stays shareable.

No JS? Fill the form by hand. The geolocation button needs JavaScript.

§ Radio — SatNOGS DB

ModeDescriptionDownlinkUplink
GMSK GMSK4k8 Mobitex TLM 435.700 MHz
DSTAR MODE U/U DSTAR VOICE 435.525 MHz 437.325 MHz

2 transmitters · refreshed weekly from db.satnogs.org